Location: Grange Rosano
(44.4500°N, 6.9667°E)
Time: 21:18:59
(UTC+00:00)

Cosmos 1455 - Pass Details

Date: 26 May 2022
Orbit: 492 x 514 km, 82.5° (Epoch: 01 July)

Event Time Altitude Azimuth Distance (km) Brightness Sun altitude
Rises 02:23:32 0° 337° (NNW) 2,584 6.1 -13.3°
Reaches altitude 10° 02:25:59 10° 322° (NW) 1,695 4.9 -13.0°
Maximum altitude 02:28:51 21° 271° (W) 1,138 3.6 -12.7°
Enters shadow 02:29:59 19° 245° (WSW) 1,241 3.6 -12.5°
